When you browse on this site, cookies collect data to enhance your experience and personalize the content and advertising you see.
Visit our Privacy Policy to learn more. By continuing to use the site, you agree to this use of cookies and data.
  • In Austria
  • List of Countries
  • For 7 days
  • Water Temperature
  • Weather Map
  • News
  • Weather Widgets
  • user-avatar
    Login

    Hourly Weather Hluzdy

    Today, 22 September, Sunday

    Time Temperature Precipitation Wind Pressure Humidity
    00:00 +10°C° 0.5 mm 7 mps 749 mmHg 93%
    01:00 +10°C° 0.5 mm 7 mps 749 mmHg 92%
    02:00 +11°C° 0 mm 6 mps 749 mmHg 91%
    03:00 +11°C° 0.2 mm 7 mps 748 mmHg 91%
    04:00 +11°C° 0.2 mm 7 mps 748 mmHg 91%
    05:00 +11°C° 0.2 mm 7 mps 748 mmHg 91%
    06:00 +11°C° 0.1 mm 7 mps 748 mmHg 89%
    07:00 +11°C° 0.1 mm 7 mps 749 mmHg 86%
    08:00 +11°C° 0.1 mm 8 mps 749 mmHg 83%
    09:00 +13°C° 0 mm 8 mps 749 mmHg 76%
    10:00 +15°C° 0 mm 8 mps 749 mmHg 68%
    11:00 +16°C° 0 mm 8 mps 749 mmHg 61%
    12:00 +17°C° 0.1 mm 8 mps 749 mmHg 59%
    13:00 +17°C° 0.1 mm 8 mps 749 mmHg 56%
    14:00 +17°C° 0.1 mm 8 mps 749 mmHg 54%
    15:00 +16°C° 0.1 mm 7 mps 749 mmHg 60%
    16:00 +15°C° 0.1 mm 5 mps 749 mmHg 65%
    17:00 +14°C° 0.1 mm 4 mps 749 mmHg 71%
    18:00 +14°C° 0.1 mm 4 mps 749 mmHg 75%
    19:00 +13°C° 0.1 mm 3 mps 749 mmHg 80%
    20:00 +13°C° 0.1 mm 2 mps 749 mmHg 84%
    21:00 +10°C° 0.7 mm 3 mps 749 mmHg 86%
    22:00 +8°C° 0.7 mm 4 mps 750 mmHg 87%
    23:00 +6°C° 0.7 mm 5 mps 750 mmHg 89%

    Tomorrow, 23 September, Monday

    Time Temperature Precipitation Wind Pressure Humidity
    00:00 +6°C° 0 mm 4 mps 751 mmHg 88%
    01:00 +7°C° 0 mm 3 mps 751 mmHg 87%
    02:00 +7°C° 0 mm 2 mps 752 mmHg 87%
    03:00 +6°C° 0 mm 2 mps 752 mmHg 89%
    04:00 +4°C° 0 mm 3 mps 753 mmHg 91%
    05:00 +3°C° 0 mm 3 mps 753 mmHg 94%
    06:00 +4°C° 0 mm 3 mps 754 mmHg 87%
    07:00 +4°C° 0 mm 3 mps 754 mmHg 81%
    08:00 +5°C° 0 mm 3 mps 754 mmHg 75%
    09:00 +7°C° 0 mm 3 mps 755 mmHg 66%
    10:00 +9°C° 0 mm 3 mps 755 mmHg 57%
    11:00 +10°C° 0 mm 3 mps 756 mmHg 48%
    12:00 +11°C° 0 mm 3 mps 755 mmHg 44%
    13:00 +11°C° 0 mm 3 mps 755 mmHg 40%
    14:00 +13°C° 0 mm 2 mps 755 mmHg 36%
    15:00 +12°C° 0 mm 2 mps 755 mmHg 40%
    16:00 +12°C° 0 mm 2 mps 755 mmHg 43%
    17:00 +10°C° 0 mm 2 mps 755 mmHg 46%
    18:00 +8°C° 0 mm 2 mps 755 mmHg 51%
    19:00 +7°C° 0 mm 2 mps 755 mmHg 56%
    20:00 +5°C° 0 mm 2 mps 756 mmHg 61%
    21:00 +5°C° 0 mm 2 mps 756 mmHg 63%
    22:00 +4°C° 0 mm 2 mps 756 mmHg 65%
    23:00 +4°C° 0 mm 1 mps 756 mmHg 67%

    Day after tomorrow, 24 September, Tuesday

    Time Temperature Precipitation Wind Pressure Humidity
    00:00 +4°C° 0 mm 1 mps 756 mmHg 68%
    01:00 +4°C° 0 mm 1 mps 756 mmHg 70%
    02:00 +3°C° 0 mm 1 mps 756 mmHg 71%
    03:00 +3°C° 0 mm 1 mps 756 mmHg 72%
    04:00 +3°C° 0 mm 1 mps 756 mmHg 73%
    05:00 +2°C° 0 mm 1 mps 756 mmHg 75%
    06:00 +4°C° 0 mm 1 mps 756 mmHg 68%
    07:00 +5°C° 0 mm 1 mps 756 mmHg 62%
    08:00 +7°C° 0 mm 1 mps 756 mmHg 56%
    09:00 +9°C° 0 mm 1 mps 756 mmHg 50%
    10:00 +10°C° 0 mm 1 mps 756 mmHg 45%
    11:00 +11°C° 0 mm 0 mps 756 mmHg 39%
    12:00 +12°C° 0 mm 1 mps 755 mmHg 37%
    13:00 +13°C° 0 mm 1 mps 755 mmHg 35%
    14:00 +13°C° 0 mm 1 mps 755 mmHg 33%
    15:00 +12°C° 0 mm 1 mps 754 mmHg 36%
    16:00 +11°C° 0 mm 1 mps 754 mmHg 40%
    17:00 +10°C° 0 mm 2 mps 754 mmHg 43%
    18:00 +8°C° 0 mm 2 mps 754 mmHg 47%
    19:00 +7°C° 0 mm 2 mps 754 mmHg 52%
    20:00 +5°C° 0 mm 2 mps 754 mmHg 56%
    21:00 +5°C° 0 mm 2 mps 754 mmHg 59%
    22:00 +3°C° 0 mm 3 mps 754 mmHg 62%
    23:00 +3°C° 0 mm 3 mps 754 mmHg 64%

    25 September, Wednesday

    Time Temperature Precipitation Wind Pressure Humidity
    00:00 +2°C° 0 mm 3 mps 754 mmHg 66%
    01:00 +3°C° 0 mm 2 mps 754 mmHg 67%
    02:00 +3°C° 0 mm 2 mps 754 mmHg 68%
    03:00 +2°C° 0 mm 2 mps 754 mmHg 69%
    04:00 +2°C° 0 mm 2 mps 754 mmHg 70%
    05:00 +2°C° 0 mm 2 mps 754 mmHg 72%
    06:00 +2°C° 0 mm 3 mps 754 mmHg 66%
    07:00 +4°C° 0 mm 3 mps 754 mmHg 60%
    08:00 +6°C° 0 mm 4 mps 754 mmHg 53%
    09:00 +8°C° 0 mm 4 mps 753 mmHg 47%
    10:00 +11°C° 0 mm 4 mps 753 mmHg 41%
    11:00 +13°C° 0 mm 4 mps 753 mmHg 34%
    12:00 +14°C° 0 mm 4 mps 753 mmHg 34%
    13:00 +15°C° 0 mm 4 mps 753 mmHg 33%
    14:00 +15°C° 0 mm 4 mps 752 mmHg 32%
    15:00 +15°C° 0 mm 4 mps 752 mmHg 36%
    16:00 +14°C° 0 mm 3 mps 752 mmHg 40%
    17:00 +13°C° 0 mm 3 mps 751 mmHg 43%
    18:00 +12°C° 0 mm 4 mps 751 mmHg 45%
    19:00 +11°C° 0 mm 4 mps 751 mmHg 46%
    20:00 +10°C° 0 mm 4 mps 751 mmHg 48%
    21:00 +10°C° 0 mm 4 mps 751 mmHg 47%
    22:00 +10°C° 0 mm 4 mps 751 mmHg 46%
    23:00 +10°C° 0 mm 4 mps 751 mmHg 46%

    26 September, Thursday

    Time Temperature Precipitation Wind Pressure Humidity
    00:00 +10°C° 0 mm 4 mps 751 mmHg 46%
    01:00 +10°C° 0 mm 4 mps 750 mmHg 47%
    02:00 +10°C° 0 mm 4 mps 750 mmHg 48%
    03:00 +10°C° 0 mm 4 mps 750 mmHg 50%
    04:00 +10°C° 0 mm 3 mps 750 mmHg 52%
    05:00 +10°C° 0 mm 3 mps 750 mmHg 53%
    06:00 +11°C° 0.2 mm 3 mps 750 mmHg 58%
    07:00 +11°C° 0.2 mm 4 mps 750 mmHg 62%
    08:00 +11°C° 0.2 mm 4 mps 750 mmHg 66%
    09:00 +13°C° 0 mm 5 mps 750 mmHg 63%
    10:00 +14°C° 0 mm 5 mps 750 mmHg 61%
    11:00 +16°C° 0 mm 6 mps 750 mmHg 58%
    12:00 +15°C° 0.1 mm 6 mps 750 mmHg 61%
    13:00 +15°C° 0.1 mm 5 mps 749 mmHg 65%
    14:00 +14°C° 0.1 mm 5 mps 749 mmHg 68%
    15:00 +13°C° 0.1 mm 5 mps 749 mmHg 73%
    16:00 +12°C° 0.1 mm 5 mps 749 mmHg 77%
    17:00 +11°C° 0.1 mm 4 mps 749 mmHg 82%
    18:00 +11°C° 0 mm 4 mps 749 mmHg 84%
    19:00 +10°C° 0 mm 4 mps 748 mmHg 87%
    20:00 +10°C° 0 mm 4 mps 748 mmHg 90%
    21:00 +8°C° 0 mm 4 mps 748 mmHg 91%
    22:00 +8°C° 0 mm 4 mps 748 mmHg 92%
    23:00 +8°C° 0 mm 4 mps 748 mmHg 93%

    27 September, Friday

    Time Temperature Precipitation Wind Pressure Humidity
    00:00 +10°C° 0 mm 3 mps 748 mmHg 93%
    01:00 +10°C° 0 mm 3 mps 748 mmHg 93%
    02:00 +10°C° 0 mm 3 mps 748 mmHg 94%
    03:00 +11°C° 0 mm 3 mps 747 mmHg 94%
    04:00 +11°C° 0 mm 3 mps 747 mmHg 94%
    05:00 +12°C° 0 mm 2 mps 747 mmHg 95%
    06:00 +12°C° 0 mm 3 mps 747 mmHg 93%
    07:00 +12°C° 0 mm 3 mps 747 mmHg 92%
    08:00 +12°C° 0 mm 3 mps 747 mmHg 90%
    09:00 +13°C° 0 mm 3 mps 747 mmHg 87%
    10:00 +14°C° 0 mm 4 mps 747 mmHg 84%
    11:00 +15°C° 0 mm 4 mps 748 mmHg 81%
    12:00 +15°C° 0.1 mm 4 mps 748 mmHg 78%
    13:00 +15°C° 0.1 mm 5 mps 748 mmHg 76%
    14:00 +15°C° 0.1 mm 5 mps 748 mmHg 74%
    15:00 +15°C° 0.1 mm 5 mps 748 mmHg 75%
    16:00 +14°C° 0.1 mm 5 mps 748 mmHg 76%
    17:00 +13°C° 0.1 mm 4 mps 748 mmHg 77%
    18:00 +13°C° 0 mm 4 mps 749 mmHg 80%
    19:00 +12°C° 0 mm 4 mps 749 mmHg 83%
    20:00 +11°C° 0 mm 4 mps 750 mmHg 86%
    21:00 +11°C° 0 mm 4 mps 750 mmHg 86%
    22:00 +11°C° 0 mm 4 mps 750 mmHg 86%
    23:00 +10°C° 0 mm 4 mps 751 mmHg 87%
    Show more